Terminal Aerodrome Forecast
Issued by NWS Twin Cities, MN

Home | Current Version | Previous Version | Text Only | Print | Product List | Glossary On
Versions: 1 2 3 4 5 6 7 8 9 10 11 12 13 14 15 16 17 18 19 20 21 22 23 24
000
FTUS43 KMPX 011100
TAFMSP
TAF
KMSP 011120Z 0112/0218 VRB03KT P6SM SKC
     FM011600 31005KT P6SM SCT050
     FM011900 32006KT P6SM VCSH SCT040 BKN070 PROB30 0121/0124 6SM
      -TSRA SCT035CB BKN050
     FM020200 17003KT P6SM FEW050
     FM021500 18006KT P6SM SCT050=

USA.gov is the U.S. government's official web portal to all federal, state and local government web resources and services.